Content
SEND FEEDBACK

Daily
Averages
Monthly
Summary
United States of America

SOMERSET - LAKE SOMERSET, PENNSYLVANIA


Home > North America > United States > Pennsylvania
Elevation: 2140 feet     Latitude: 40 01N     Longitude: 079 05W

WEATHER
 
SELECT A DAY
Number of Records: 241,915;   Date Range: 1/1/95 - 7/23/14
 
SHARE

PRINT THIS DATA

[ ← Previous Day ]
WEATHER ALMANAC - JANUARY 31, 2013
[ Next Day → ]
[ °C ]   °F
Weather ElementAverageHighLow
Temperature25.3 °F46.4 °F (12:39 am)17.6 °F (4:31 pm)
Dewpoint19.1 °F42.8 °F (12:39 am)7 °F (3:54 pm)
Humidity77.5 %100 % (3:44 am)57 % (3:54 pm)
Barometer29.48 in29.81 in (9:54 pm)29.18 in (1:23 am)
Wind Speed22.8 mph35.7 mph (2:42 pm)
Wind Gust50.6 mph (2:04 am)
Weather ElementAverage
Visibility3.8 mi
Wind DirectionWSW (261.6 °)

Weather ElementTotal
Precipitation0.32 in
Heating Degree Days33 (Base 65)
Averaged from 77 records on January 31, 2013
WEATHER CONDITIONS BREAKOUT
WIND DIRECTION BREAKOUT
WEATHER BY HOUR - JANUARY 31, 2013
[ °C ]   °F
Local TimeTemperatureDewpointHumidityBarometerVisibilityWind DirectionWind SpeedGust SpeedPrecipitationEventsConditions
12:39 AM46.4 °F42.8 °F87 %29.23 in9.0 miWest (260°)20.7 mph33.4 mph0.06 inRainLight Rain
12:50 AM44.6 °F41.0 °F87 %29.23 in7.0 miWSW (250°)28.8 mph36.8 mph0.08 inRainRain
12:54 AM44.1 °F39.9 °F85 %29.23 in9.0 miWSW (250°)28.8 mph43.7 mph0.08 inRainLight Rain
1:23 AM42.8 °F37.4 °F81 %29.18 in10.0 miWSW (250°)18.4 mph27.6 mph0.00 inRainLight Rain
1:33 AM42.8 °F37.4 °F81 %29.19 in10.0 miWSW (240°)19.6 mph28.8 mph0.00 inRainLight Rain
1:54 AM42.1 °F37.0 °F82 %29.21 in9.0 miWSW (240°)19.6 mph32.2 mph0.01 inRainLight Rain
2:04 AM39.2 °F35.6 °F87 %29.24 in7.0 miWest (260°)25.3 mph50.6 mph0.00 inRainLight Rain
2:12 AM37.4 °F33.8 °F87 %29.24 in10.0 miWest (260°)20.7 mph44.9 mph0.01 inRainLight Rain
2:33 AM35.6 °F30.2 °F81 %29.24 in10.0 miWest (260°)23.0 mph38.0 mph0.01 inRainLight Rain
2:54 AM34.0 °F28.9 °F82 %29.28 in6.0 miWest (270°)24.2 mph32.2 mph0.01 inSnowLight Snow
3:29 AM32.0 °F28.4 °F87 %29.27 in2.0 miWSW (250°)24.2 mph36.8 mph0.00 inSnowLight Snow
3:32 AM32.0 °F28.4 °F87 %29.29 in1.2 miWSW (250°)25.3 mph34.5 mph0.00 inSnowLight Snow
3:35 AM32.0 °F28.4 °F87 %29.29 in0.8 miWest (260°)23.0 mph34.5 mph0.00 inSnowLight Snow
3:44 AM30.2 °F30.2 °F100 %29.29 in1.0 miWest (280°)19.6 mph29.9 mph0.01 inSnowLight Snow
3:54 AM30.0 °F27.0 °F88 %29.33 in1.0 miWest (270°)27.6 mph44.9 mph0.01 inSnowLight Snow
4:00 AM30.2 °F26.6 °F86 %29.30 in3.0 miWest (270°)31.1 mph43.7 mph0.00 inSnowLight Snow
4:13 AM30.2 °F24.8 °F80 %29.31 in10.0 miWest (270°)23.0 mph40.3 mph0.00 inOvercast
4:54 AM28.9 °F21.9 °F75 %29.35 in10.0 miWest (270°)24.2 mph36.8 mph0.00 inOvercast
5:25 AM28.4 °F21.2 °F74 %29.35 in1.0 miNorth0.00 inSnowLight Snow
5:31 AM26.6 °F24.8 °F93 %29.34 in0.2 miWest (280°)23.0 mph38.0 mph0.00 inFog-SnowSnow
5:33 AM26.6 °F24.8 °F93 %29.35 in0.2 miWest (270°)19.6 mph38.0 mph0.01 inFog-SnowSnow
5:41 AM26.6 °F24.8 °F93 %29.35 in1.0 miWest (260°)17.3 mph28.8 mph0.01 inSnowLight Snow
5:48 AM26.6 °F24.8 °F93 %29.36 in3.0 miWest (270°)21.9 mph28.8 mph0.01 inSnowLight Snow
5:54 AM27.0 °F24.1 °F89 %29.39 in4.0 miWest (260°)17.3 mph28.8 mph0.01 inSnowLight Snow
6:10 AM26.6 °F23.0 °F86 %29.36 in7.0 miWest (260°)29.9 mph42.6 mph0.00 inSnowLight Snow
6:23 AM26.6 °F23.0 °F86 %29.38 in2.5 miWest (260°)21.9 mph36.8 mph0.00 inSnowLight Snow
6:28 AM26.6 °F21.2 °F80 %29.39 in3.0 miWest (260°)26.5 mph36.8 mph0.00 inSnowLight Snow
6:54 AM26.1 °F21.0 °F81 %29.46 in7.0 miWest (260°)27.6 mph41.4 mph0.00 inSnowLight Snow
7:54 AM26.1 °F17.1 °F69 %29.49 in7.0 miWest (260°)28.8 mph41.4 mph0.00 inSnowLight Snow
8:27 AM24.8 °F17.6 °F74 %29.46 in2.5 miWest (260°)23.0 mph43.7 mph0.00 inSnowLight Snow
8:36 AM24.8 °F17.6 °F74 %29.47 in2.0 miWest (270°)23.0 mph36.8 mph0.00 inSnowLight Snow
8:46 AM24.8 °F15.8 °F69 %29.47 in6.0 miWest (270°)25.3 mph39.1 mph0.00 inSnowLight Snow
8:54 AM25.0 °F16.0 °F69 %29.52 in4.0 miWest (270°)16.1 mph36.8 mph0.00 inSnowLight Snow
8:59 AM24.8 °F17.6 °F74 %29.47 in1.8 miWest (280°)23.0 mph29.9 mph0.00 inSnowLight Snow
9:14 AM23.0 °F19.4 °F86 %29.47 in0.5 miWest (280°)19.6 mph28.8 mph0.00 inFog-SnowSnow
9:20 AM23.0 °F19.4 °F86 %29.48 in0.2 miWest (270°)19.6 mph29.9 mph0.00 inFog-SnowSnow
9:33 AM21.2 °F19.4 °F93 %29.48 in0.2 miWest (260°)16.1 mph27.6 mph0.00 inFog-SnowSnow
9:50 AM21.2 °F17.6 °F86 %29.49 in0.8 miWest (270°)21.9 mph34.5 mph0.00 inSnowLight Snow
9:54 AM21.9 °F17.1 °F82 %29.54 in1.0 miWest (270°)24.2 mph41.4 mph0.00 inSnowLight Snow
10:10 AM23.0 °F15.8 °F74 %29.50 in4.0 miWest (270°)15.0 mph34.5 mph0.00 inSnowLight Snow
10:21 AM23.0 °F14.0 °F68 %29.51 in1.8 miWest (270°)27.6 mph42.6 mph0.00 inSnowLight Snow
10:32 AM23.0 °F15.8 °F74 %29.51 in3.0 miWest (270°)24.2 mph33.4 mph0.00 inSnowLight Snow
10:44 AM21.2 °F15.8 °F80 %29.52 in1.8 miWest (280°)24.2 mph39.1 mph0.00 inSnowLight Snow
10:54 AM21.9 °F16.0 °F78 %29.57 in0.8 miWest (270°)20.7 mph29.9 mph0.00 inSnowLight Snow
11:01 AM21.2 °F17.6 °F86 %29.53 in0.2 miWest (270°)19.6 mph34.5 mph0.00 inFog-SnowSnow
11:11 AM21.2 °F14.0 °F74 %29.55 in0.2 miWest (260°)29.9 mph39.1 mph0.00 inSnowHeavy Snow
11:19 AM19.4 °F15.8 °F86 %29.56 in0.2 miWest (270°)20.7 mph41.4 mph0.00 inSnowHeavy Snow
11:24 AM19.4 °F12.2 °F74 %29.56 in0.2 miWest (280°)25.3 mph38.0 mph0.00 inSnowHeavy Snow
11:42 AM19.4 °F12.2 °F74 %29.56 in1.0 miWest (260°)18.4 mph38.0 mph0.00 inSnowLight Snow
11:54 AM19.9 °F12.0 °F71 %29.62 in1.2 miWest (260°)21.9 mph35.7 mph0.00 inSnowLight Snow
12:35 PM21.2 °F12.2 °F68 %29.57 in0.5 miWest (270°)21.9 mph43.7 mph0.00 inSnowSnow
12:43 PM21.2 °F12.2 °F68 %29.56 in2.5 miWest (270°)19.6 mph36.8 mph0.00 inSnowLight Snow
12:48 PM21.2 °F12.2 °F68 %29.56 in5.0 miWest (260°)24.2 mph34.5 mph0.00 inSnowLight Snow
12:54 PM21.0 °F12.0 °F68 %29.62 in3.0 miWest (260°)19.6 mph41.4 mph0.00 inSnowLight Snow
1:10 PM21.2 °F12.2 °F68 %29.56 in1.8 miWest (260°)23.0 mph48.3 mph0.00 inSnowLight Snow
1:17 PM21.2 °F12.2 °F68 %29.56 in3.0 miWest (260°)21.9 mph39.1 mph0.00 inSnowLight Snow
1:32 PM21.2 °F12.2 °F68 %29.57 in2.5 miWest (260°)19.6 mph43.7 mph0.00 inSnowLight Snow
1:51 PM21.2 °F12.2 °F68 %29.56 in1.8 miWest (270°)23.0 mph33.4 mph0.00 inSnowLight Snow
1:54 PM21.0 °F12.9 °F71 %29.62 in1.2 miWest (260°)29.9 mph42.6 mph0.00 inSnowLight Snow
2:08 PM21.2 °F12.2 °F68 %29.56 in3.0 miWest (270°)23.0 mph32.2 mph0.00 inSnowLight Snow
2:15 PM21.2 °F12.2 °F68 %29.57 in7.0 miWest (270°)24.2 mph42.6 mph0.00 inSnowLight Snow
2:42 PM21.2 °F10.4 °F63 %29.57 in1.8 miWest (260°)35.7 mph50.6 mph0.00 inSnowBlowing Snow
2:54 PM21.0 °F10.9 °F65 %29.66 in2.0 miWest (270°)28.8 mph42.6 mph0.00 inSnowLight Snow
2:57 PM19.4 °F10.4 °F68 %29.59 in3.0 miWest (270°)26.5 mph46.0 mph0.00 inSnowLight Snow
3:54 PM19.9 °F7.0 °F57 %29.70 in10.0 miWest (270°)27.6 mph46.0 mph0.00 inOvercast
4:11 PM19.4 °F10.4 °F68 %29.64 in1.5 miWest (260°)29.9 mph40.3 mph0.00 inSnowLight Snow
4:21 PM19.4 °F12.2 °F74 %29.65 in1.0 miWest (270°)24.2 mph36.8 mph0.00 inSnowLight Snow
4:31 PM17.6 °F12.2 °F79 %29.65 in0.8 miWest (270°)25.3 mph38.0 mph0.00 inSnowLight Snow
4:37 PM17.6 °F10.4 °F73 %29.66 in2.5 miWest (270°)27.6 mph38.0 mph0.00 inSnowLight Snow
4:44 PM17.6 °F10.4 °F73 %29.66 in8.0 miWest (270°)24.2 mph40.3 mph0.00 inOvercast
4:54 PM18.0 °F9.0 °F68 %29.75 in7.0 miWest (280°)24.2 mph33.4 mph0.00 inSnowLight Snow
5:54 PM18.0 °F8.1 °F65 %29.78 in9.0 miWest (260°)18.4 mph34.5 mph0.00 inOvercast
6:54 PM18.0 °F8.1 °F65 %29.80 in10.0 miWest (260°)12.7 mph23.0 mphOvercast
9:54 PM19.0 °F10.9 °F71 %29.81 in2.5 miWSW (250°)17.3 mph28.8 mph0.00 inSnowLight Snow
10:04 PM19.4 °F10.4 °F68 %29.71 in5.0 miWest (260°)16.1 mph26.5 mph0.00 inSnowLight Snow
10:54 PM19.0 °F10.9 °F71 %29.81 in9.0 miWest (270°)15.0 mph26.5 mph0.00 inOvercast
11:58 PM17.6 °F14.0 °F86 %29.70 in1.8 miWest (280°)9.2 mph0.00 inSnowLight Snow
Hourly data recorded from KJST, located miles away from Somerset - Lake Somerset, Pennsylvania







STORIES FROM OUR PARTNERS